Погода в Колодезном

Украина / Харьковская область     50°00′19″N   37°41′00″E
В апреле 2022 года жителям России запретили посещать сайт meteo.paraplan.net по решению Генеральной прокуратуры. Аудитория сайта уменьшилась в 10 раз. Владельцы сайта не видят смысла в поддержке погодного сервера в таких условиях. Сайт будет закрыт в октябре.
темп.,
°C
ветер,
м/с
пор.,
м/с
влажн.,
%
обл.,
%
осадки,
мм/ч
давл.,
гПа
погр.,
м
25 сентября, вс
вс2500:00+7зюз5108697 0.0 1011268
03:00+8зюз61386100 0.0 1011638
06:00+9зюз81586100 0.5 10091231
09:00+9з91581100 1.8 10101346
12:00+11з81466100 0.1 10111261
15:00+15з9144731 0.1 10121835
18:00+13з713525 0.0 1013587
21:00+9зюз410695 0.0 1014206
26 сентября, пн
пн2600:00+8зюз4117189 0.0 1015239
03:00+7зюз497544 0.0 1016175
06:00+9юз3871100 0.0 1015218
09:00+11юз3566100 0.0 1016221
12:00+17зюз574446 0.0 10151530
15:00+19зюз364249 0.0 10141976
18:00+16сз2252100 0.0 101418
21:00+13в1157100 0.0 101411
27 сентября, вт
вт2700:00+14в2269100 0.1 101236
03:00+12ю3780100 0.1 1011136
06:00+11ю4109466 0.0 1010216
09:00+15ююз5884100 0.0 1010387
12:00+17ююз4674100 0.0 1009646
15:00+18ююз5875100 2.1 1008731
18:00+14юв3589100 1.6 1008176
21:00+13вюв41181100 1.6 1007215
28 сентября, ср
ср2800:00+13вюв3776100 0.0 1005151
03:00+13вюв3874100 0.0 1003168
06:00+14юв3666100 0.1 1002123
09:00+13ю41288100 0.9 1001429
12:00+19юз61073100 0.4 10011184
15:00+21юз59553 0.6 10021703
18:00+16зсз48720 0.0 1004181
21:00+12зсз3987100 0.0 1006222
29 сентября, чт
чт2900:00+12з2284100 0.0 100817
03:00+11зсз22870 0.0 100928
06:00+10сз11900 0.0 101111
09:00+14ссв11765 0.0 1012246
12:00+18с11595 0.0 1013952
15:00+20св114939 0.0 10141417
18:00+16в336465 0.0 101529
21:00+15в347182 0.0 101651